Station LORO1 - Lorain Harbor, OH Image indicating link to RSS feed of recent meteorological observations for station LORO1


Conditions at LORO1 as of
(1:30 pm EDT)
1730 GMT on 05/28/2024:
     

Click on the graph icon in the table below to see a time series plot of the last five days of that observation.

5-day plot - Wind Direction Wind Direction (WDIR): W ( 280 deg true )
5-day plot - Wind Speed Wind Speed (WSPD): 8 kts
5-day plot - Wind Gust Wind Gust (GST): 10 kts
5-day plot - Air Temperature Air Temperature (ATMP): 63.0 °F
5-day plot - Wind Speed at 10 Meters Wind Speed at 10 meters (WSPD10M): 10 kts
5-day plot - Wind Speed at 20 Meters Wind Speed at 20 meters (WSPD20M): 10 kts
5-day plot -  Wind Speed, Wind Gust and Atmospheric Pressure Combined plot of Wind Speed, Gust, and Air Pressure
Previous observations
TIME
(EDT)
5-day plot - Wind Direction
WDIR
 
5-day plot - Wind Speed
WSPD
kts
5-day plot - Wind Gust
GST
kts
5-day plot - Wave Height
WVHT
ft
5-day plot - Dominant Wave Period
DPD
sec
5-day plot - Average Wave Period
APD
sec
5-day plot - Mean Wave Direction
MWD
 
5-day plot - Atmospheric Pressure
PRES
in
5-day plot - Pressure Tendency
PTDY
in
5-day plot - Air Temperature
ATMP
°F
5-day plot - Water Temperature
WTMP
°F
5-day plot - Dew Point
DEWP
°F
5-day plot - Salinity
SAL
psu
5-day plot - Visibility
VIS
nmi
5-day plot - Tide (above MLLW)
TIDE
ft
2024-05-28 01:20 pmWNW 9 10------ 62.6-----
2024-05-28 01:10 pmWNW 9 10------ 62.8-----
2024-05-28 01:00 pmWNW 9 10------ 62.6-----
2024-05-28 12:50 pmWNW 9 11------ 62.8-----
2024-05-28 12:40 pm W 10 12------ 63.7-----
2024-05-28 12:30 pm W 11 12------ 63.5-----
2024-05-28 12:20 pm W 10 13------ 63.7-----
2024-05-28 12:10 pm W 11 12------ 63.0-----
2024-05-28 12:00 pmWNW 11 13------ 62.6-----
2024-05-28 11:50 amWNW 11 12------ 62.8-----
2024-05-28 11:40 am W 11 12------ 63.1-----
2024-05-28 11:30 am W 11 12------ 63.3-----
2024-05-28 11:20 am W 10 12------ 63.7-----
2024-05-28 11:10 am W 10 12------ 62.6-----
2024-05-28 11:00 am W 11 12------ 62.8-----
2024-05-28 10:50 am W 11 12------ 62.4-----
2024-05-28 10:40 am W 10 11------ 62.4-----
2024-05-28 10:30 am W 10 12------ 62.1-----
2024-05-28 10:20 am W 10 11------ 62.6-----
2024-05-28 10:10 am W 10 11------ 61.9-----
2024-05-28 10:00 am W 9 13------ 61.3-----
2024-05-28 09:50 am W 10 12------ 62.1-----
2024-05-28 09:40 am W 10 12------ 62.2-----
2024-05-28 09:30 am W 11 13------ 61.5-----
2024-05-28 09:20 am W 12 13------ 61.0-----
2024-05-28 09:10 am W 12 14------ 61.2-----
2024-05-28 09:00 am W 13 14------ 61.2-----
2024-05-28 08:50 am W 13 14------ 61.2-----
2024-05-28 08:40 am W 13 15------ 60.3-----
2024-05-28 08:30 am W 12 14------ 60.6-----
2024-05-28 08:20 am W 12 13------ 61.2-----
2024-05-28 08:10 am W 12 14------ 61.2-----
2024-05-28 08:00 am W 13 15------ 61.2-----
2024-05-28 07:50 am W 13 16------ 60.6-----
2024-05-28 07:40 am W 13 16------ 60.6-----
2024-05-28 07:30 am W 15 17------ 60.4-----
2024-05-28 07:20 am W 15 17------ 60.4-----
2024-05-28 07:10 am W 15 16------ 60.4-----
2024-05-28 07:00 am W 13 15------ 60.4-----
2024-05-28 06:50 am W 11 15------ 60.3-----
2024-05-28 06:40 am W 14 15------ 59.9-----
2024-05-28 06:30 am W 15 16------ 59.7-----
2024-05-28 06:20 am W 15 16------ 60.1-----
2024-05-28 06:10 am W 14 16------ 59.9-----
2024-05-28 06:00 am W 14 16------ 60.1-----
2024-05-28 05:50 am W 16 17------ 60.1-----
2024-05-28 05:40 am W 15 17------ 60.3-----
2024-05-28 05:30 am W 15 17------ 60.3-----
2024-05-28 05:20 am W 14 16------ 60.6-----
2024-05-28 05:10 am W 15 16------ 60.8-----
2024-05-28 05:00 am W 14 16------ 61.0-----
2024-05-28 04:50 am W 14 17------ 61.0-----
2024-05-28 04:40 am W 14 17------ 61.2-----
2024-05-28 04:30 am W 15 19------ 61.3-----
2024-05-28 04:20 am W 16 18------ 61.7-----
2024-05-28 04:10 am W 16 17------ 61.7-----
2024-05-28 04:00 am W 14 17------ 61.7-----
2024-05-28 03:50 am W 16 18------ 61.5-----
2024-05-28 03:40 am W 16 18------ 61.7-----
2024-05-28 03:30 am W 16 19------ 61.7-----
2024-05-28 03:20 am W 16 19------ 61.9-----
2024-05-28 03:10 am W 14 16------ 61.7-----
2024-05-28 03:00 am W 14 17------ 61.9-----
2024-05-28 02:50 am W 14 17------ 62.6-----
2024-05-28 02:40 am W 14 19------ 62.6-----
2024-05-28 02:30 am W 16 18------ 62.6-----
2024-05-28 02:20 am W 16 18------ 62.6-----
2024-05-28 02:10 am W 15 18------ 62.6-----
2024-05-28 02:00 am W 16 19------ 62.6-----
2024-05-28 01:50 am W 16 20------ 63.0-----
2024-05-28 01:40 am W 18 20------ 63.0-----
2024-05-28 01:30 am W 18 21------ 63.3-----
2024-05-28 01:20 am W 18 22------ 63.5-----
2024-05-28 01:10 am W 16 19------ 63.5-----
2024-05-28 01:00 am W 15 19------ 63.5-----
2024-05-28 12:50 am W 14 19------ 63.7-----
2024-05-28 12:40 am W 15 18------ 63.7-----
2024-05-28 12:30 am W 16 19------ 63.9-----
2024-05-28 12:20 amWSW 12 20------ 63.9-----
2024-05-28 12:10 amWSW 15 19------ 64.0-----
2024-05-28 12:00 amWSW 14 17------ 64.0-----
2024-05-27 11:50 pmWSW 13 16------ 64.0-----
2024-05-27 11:40 pmWSW 14 18------ 64.0-----
2024-05-27 11:30 pmWSW 15 18------ 64.0-----
2024-05-27 11:20 pmWSW 17 19------ 64.2-----
2024-05-27 11:10 pmWSW 17 21------ 64.0-----
2024-05-27 11:00 pmWSW 17 21------ 64.2-----
2024-05-27 10:50 pmWSW 15 18------ 64.0-----
2024-05-27 10:40 pmWSW 16 18------ 64.2-----
2024-05-27 10:30 pmWSW 16 20------ 64.2-----
2024-05-27 10:20 pmWSW 15 19------ 64.0-----
2024-05-27 10:10 pmWSW 15 18------ 64.0-----
2024-05-27 10:00 pmWSW 14 19------ 64.0-----
2024-05-27 09:50 pmWSW 16 19------ 64.2-----
2024-05-27 09:40 pmWSW 17 20------ 64.2-----
2024-05-27 09:30 pmWSW 17 21------ 64.2-----
2024-05-27 09:20 pmWSW 16 21------ 64.4-----
2024-05-27 09:10 pmWSW 17 20------ 64.4-----
2024-05-27 09:00 pmWSW 18 21------ 64.4-----
2024-05-27 08:50 pmWSW 16 20------ 64.4-----
2024-05-27 08:40 pmWSW 17 21------ 64.6-----
2024-05-27 08:30 pmWSW 16 22------ 64.6-----
2024-05-27 08:20 pmWSW 18 21------ 64.8-----
2024-05-27 08:10 pmWSW 18 21------ 64.8-----
2024-05-27 08:00 pm W 19 22------ 64.6-----
2024-05-27 07:50 pm W 18 21------ 64.6-----
2024-05-27 07:40 pm W 18 21------ 64.6-----
2024-05-27 07:30 pm W 19 22------ 64.8-----
2024-05-27 07:20 pm W 19 22------ 64.8-----
2024-05-27 07:10 pm W 19 22------ 64.8-----
2024-05-27 07:00 pm W 18 22------ 65.1-----
2024-05-27 06:50 pm W 16 22------ 65.1-----
2024-05-27 06:40 pm W 20 24------ 65.3-----
2024-05-27 06:30 pm W 19 22------ 65.1-----
2024-05-27 06:20 pmWSW 17 21------ 64.9-----
2024-05-27 06:10 pmWSW 17 21------ 65.1-----
2024-05-27 06:00 pmWSW 20 22------ 65.1-----
2024-05-27 05:50 pmWSW 16 21------ 64.9-----
2024-05-27 05:40 pmWSW 19 22------ 64.9-----
2024-05-27 05:30 pm W 19 25------ 64.6-----
2024-05-27 05:20 pmWSW 22 25------ 64.4-----
2024-05-27 05:10 pmWSW 20 22------ 65.3-----
2024-05-27 05:00 pm W 18 22------ 65.3-----
2024-05-27 04:50 pm W 19 24------ 65.1-----
2024-05-27 04:40 pm W 22 25------ 65.5-----
2024-05-27 04:30 pm W 22 25------ 65.5-----
2024-05-27 04:20 pm W 21 23------ 65.7-----
2024-05-27 04:10 pm W 19 23------ 65.8-----
2024-05-27 04:00 pm W 19 24------ 66.2-----
2024-05-27 03:50 pm W 17 25------ 66.9-----
2024-05-27 03:40 pm W 22 24------ 67.6-----
2024-05-27 03:30 pm W 19 21------ 68.0-----
2024-05-27 03:20 pm W 18 23------ 68.0-----
2024-05-27 03:10 pm W 19 24------ 68.0-----
2024-05-27 03:00 pm W 19 22------ 68.0-----
2024-05-27 02:50 pm W 17 20------ 67.8-----
2024-05-27 02:40 pm W 16 17------ 67.6-----
2024-05-27 02:30 pm W 14 17------ 68.0-----
2024-05-27 02:20 pm W 15 17------ 68.2-----
2024-05-27 02:10 pm W 14 17------ 68.0-----
2024-05-27 02:00 pm W 15 18------ 68.4-----
2024-05-27 01:50 pm W 16 18------ 69.3-----